Regional Weather Roundup
Issued by NWS

Home | Current Version | Previous Version | Text Only | Print | Product List | Glossary Off
Versions: 1 2 3 4 5 6 7 8 9 10 11 12 13 14 15 16 17 18 19 20 21 22 23 24 25 26 27 28 29 30 31 32 33 34 35 36 37 38 39 40 41 42 43 44 45 46 47 48 49 50

000
ASUS43 KLSX 280307
RWRMO

WEATHER SUMMARY FOR MISSOURI
NATIONAL WEATHER SERVICE SPRINGFIELD MO
1000 PM CDT THU AUG 27 2015

NOTE: "FAIR" INDICATES FEW OR NO CLOUDS BELOW 12,000 FEET WITH NO
       SIGNIFICANT WEATHER AND/OR OBSTRUCTIONS TO VISIBILITY.
       CURRENT SKY AND/OR WEATHER CONDITIONS ARE NOT AVAILABLE FOR
       CHILLICOTHE AND FARMINGTON.

MOZ001>031-035>038-043-044-053-054-280400-
...NORTHERN AND WESTERN MISSOURI...

CITY           SKY/WX    TMP DP  RH WIND       PRES   REMARKS
KANSAS CTY INT CLOUDY    71  64  78 SE14      30.00S
KANSAS C DTWN  CLOUDY    73  65  75 SE8       30.00R
LEE`S SUMMIT     N/A     70  64  81 S6        30.03R
ST JOSEPH      CLOUDY    71  65  81 S8        30.00R
CHILLICOTHE      N/A     69  62  78 VRB3      30.05R
KIRKSVILLE     MOCLDY    65  59  81 SE7       30.06R

$$
MOZ066>068-077>081-088>096-101>105-280400-
...SOUTHWEST MISSOURI...

CITY           SKY/WX    TMP DP  RH WIND       PRES   REMARKS
SPRINGFIELD    MOCLDY    70  63  78 SE10      30.07R
JOPLIN         PTCLDY    70  66  87 S6        30.04R

$$
MOZ032>034-039>042-045>050-055>058-069>072-280400-
...CENTRAL MISSOURI...

CITY           SKY/WX    TMP DP  RH WIND       PRES   REMARKS
COLUMBIA       PTCLDY    66  62  87 SE8       30.07R
JEFFERSON CITY PTCLDY    66  61  84 SE6       30.06R
ROLLA          CLEAR     63  60  90 E7        30.08R
SEDALIA        CLOUDY    67  60  78 S6        30.06R
WHITEMAN AFB   PTCLDY    69  63  79 S8        30.03R
WARRENSBURG    PTCLDY    68  63  83 SE7       30.03R
OSAGE BEACH    PTCLDY    63  59  88 SE3       30.07R

$$
MOZ051-052-059>065-280400-
...EAST CENTRAL MISSOURI...

CITY           SKY/WX    TMP DP  RH WIND       PRES   REMARKS
ST LOUIS INTL  MOCLDY    71  56  58 CALM      30.10R
SPIRIT OF STL  CLEAR     63  61  93 CALM      30.08R
ST CHARLES     CLEAR     66  63  90 NE3       30.09R

$$
MOZ072>076-082>087-097>100-106>115-280400-
...SOUTH CENTRAL AND SOUTHEAST MISSOURI...

CITY           SKY/WX    TMP DP  RH WIND       PRES   REMARKS
CAPE GIRARDEAU CLEAR     62  61  96 CALM      30.09R
FARMINGTON     CLEAR     63  59  88 E3        30.12R
POPLAR BLUFF   CLEAR     63  61  93 CALM      30.07R
WEST PLAINS    CLEAR     64  58  80 S5        30.10R

$$


USA.gov is the U.S. government's official web portal to all federal, state and local government web resources and services.